User: anonymous   Login
Location: Bluff Heights
(33.7692°N, 118.1592°W)
Time: 12:07:52
(UTC+00:00)
Language:

Courier 1B Rocket - Orbit

View from above orbital plane
View from above orbital plane
View from above satellite
View from above satellite

Ground track
Ground track

The orbit data is extracted from the following two-line orbital elements,

1 00059U 60013B   21215.55184107  .00000108  00000-0  25289-4 0  9995
2 00059  28.2472 261.3371 0189190 145.0083 216.3055 13.52986623  2114
Epoch (UTC): 03 August 2021 13:14:39
Eccentricity: 0.0189190
inclination: 28.2472°
perigee height: 920 km
apogee height: 1202 km
right ascension of ascending node: 261.3371°
argument of perigee: 145.0083°
revolutions per day: 13.52986623
mean anomaly at epoch: 216.3055°
orbit number at epoch: 211

The dashed part of the orbit path shows where the satellite is in the earth's shadow,  

DLR